• Join FlightAware (Why Join?)
  • Login
  • US Flag GB Flag 
07:11 EDT


 

Airport Tracker/Info


-or-


 

Live Flight TrackerFlight Track Log ✈ SWA757 ✈ 26-Apr-2013 ✈ KSJC - KSAN

Flight Track Log - Related Links

Times and Time Zones

All times are in EDT time to prevent confusion due to time zone crossing. See the SWA757 flight status page for this flight to view local times or setup timezone preferences in your user account.

Time Position Orientation Groundspeed Altitude Reporting Facility
EDT Latitude Longitude Course Direction KTS MPH feet Rate Location/Type
23:21 37.4000 -121.9667 138° Southeast 190 219 2,100  Level Northern Cal TRACON
23:22 37.4500 -121.9500 15° North 236 272 5,000 1,560 Climbing Northern Cal TRACON
23:23 37.4167 -121.8833 122° Southeast 231 266 5,300 1,860 Climbing Northern Cal TRACON
23:24 37.3667 -121.8333 142° Southeast 224 258 8,600 3,120 Climbing Northern Cal TRACON
23:25 37.3186 -121.7747 136° Southeast 269 310 10,900 2,760 Climbing Oakland Center
23:26 36.9806 -121.5089 138° Southeast  Level Estimated
23:26 37.2497 -121.7011 140° Southeast 323 372 13,900  Level Oakland Center
23:27 37.1767 -121.6150 137° Southeast 353 406 17,300 3,060 Climbing Oakland Center
23:28 37.0994 -121.5269 138° Southeast 372 428 20,200 1,800 Climbing Oakland Center
23:29 37.0069 -121.4494 146° Southeast 389 448 21,000 1,620 Climbing Oakland Center
23:30 36.9047 -121.3881 154° Southeast 405 466 23,600 2,340 Climbing Oakland Center
23:31 36.8147 -121.3286 152° Southeast 414 476 25,800 2,340 Climbing Oakland Center
23:32 36.7064 -121.2161 140° Southeast 422 486 28,400 2,160 Climbing Oakland Center
23:33 36.6181 -121.1117 136° Southeast 436 502 30,300 1,860 Climbing Oakland Center
23:34 36.5281 -121.0039 136° Southeast 447 514 32,200 1,860 Climbing Oakland Center
23:35 36.4364 -120.8981 137° Southeast 450 518 34,100 1,740 Climbing Oakland Center
23:36 36.3475 -120.7897 136° Southeast 448 516 35,800 1,500 Climbing Oakland Center
23:37 36.2561 -120.6844 137° Southeast 449 517 37,200 1,320 Climbing Oakland Center
23:38 36.1656 -120.5772 136° Southeast 448 516 38,500 840 Climbing Oakland Center
23:39 36.0739 -120.4703 137° Southeast 456 525 39,000 240 Climbing Oakland Center
23:40 35.9822 -120.3656 137° Southeast 437 503 39,000  Level Oakland Center
23:41 35.8906 -120.2592 137° Southeast 446 513 39,000  Level Oakland Center
23:42 35.7986 -120.1528 137° Southeast 450 518 39,000  Level Oakland Center
23:43 35.7064 -120.0469 137° Southeast 449 517 39,000  Level Oakland Center
23:44 35.6111 -119.9467 139° Southeast 446 513 39,000  Level Oakland Center
23:45 35.5081 -119.8578 145° Southeast 445 512 39,000  Level Oakland Center
23:46 35.4050 -119.7697 145° Southeast 447 514 39,000  Level Oakland Center
23:47 35.3031 -119.6814 145° Southeast 447 514 39,000  Level Oakland Center
23:48 35.1992 -119.5931 145° Southeast 450 518 39,000  Level Oakland Center
23:49 35.0869 -119.5400 159° South 442 509 39,000  Level Oakland Center
23:50 34.9978 -119.6581 227° Southwest 430 495 39,000  Level Oakland Center
23:50 35.0000 -119.6881 275° West 418 481 39,000  Level Los Angeles Center
23:51 35.0839 -119.7794 318° Northwest 428 493 39,000  Level Los Angeles Center
23:52 35.1933 -119.7244 22° Northeast 447 514 39,000  Level Los Angeles Center
23:53 35.2050 -119.5778 84° East 453 521 39,000  Level Los Angeles Center
23:54 35.1142 -119.4725 137° Southeast 453 521 39,000  Level Los Angeles Center
23:55 34.9947 -119.3661 144° Southeast 445 512 39,000 -480 Level Los Angeles Center
23:57 34.8883 -119.3361 167° South 407 468 38,100 -960 Descending Los Angeles Center
23:58 34.7783 -119.3656 192° South 399 459 37,100 -540 Descending Los Angeles Center
23:59 34.6658 -119.3953 192° South 408 470 37,000 -60 Descending Los Angeles Center
00:00 34.5486 -119.4272 193° South 418 481 37,000  Level Los Angeles Center
00:01 34.4361 -119.4397 185° South 417 480 37,000  Level Los Angeles Center
00:02 34.3592 -119.3364 132° Southeast 426 490 37,000  Level Los Angeles Center
00:03 34.2981 -119.2081 120° Southeast 440 506 37,000  Level Los Angeles Center
00:04 34.2386 -119.0803 119° Southeast 439 505 37,000  Level Los Angeles Center
00:05 34.1778 -118.9508 120° Southeast 443 510 37,000 -540 Level Los Angeles Center
00:06 34.1047 -118.7956 120° Southeast 444 511 36,000 -960 Descending Los Angeles Center
00:07 34.0428 -118.6650 120° Southeast 447 514 35,100 -960 Descending Los Angeles Center
00:08 33.9817 -118.5344 119° Southeast 448 516 34,100 -1,020 Descending Los Angeles Center
00:09 33.9142 -118.4072 123° Southeast 449 517 33,100 -1,020 Descending Los Angeles Center
00:10 33.8222 -118.2925 134° Southeast 452 520 32,100 -960 Descending Los Angeles Center
00:11 33.7364 -118.1792 132° Southeast 454 522 31,200 -1,080 Descending Los Angeles Center
00:12 33.6525 -118.0728 133° Southeast 435 501 30,000 -1,560 Descending Los Angeles Center
00:13 33.5747 -117.9758 134° Southeast 404 465 28,100 -2,160 Descending Los Angeles Center
00:14 33.5011 -117.8822 133° Southeast 388 447 25,600 -2,640 Descending Los Angeles Center
00:15 33.4167 -117.7667 131° Southeast 372 428 22,500 -2,400 Descending Southern California TRACON
00:16 33.3592 -117.7031 137° Southeast 365 420 20,700 -2,280 Descending Los Angeles Center
00:17 33.2783 -117.6017 134° Southeast 351 404 18,100 -2,220 Descending Los Angeles Center
00:18 33.2094 -117.5294 139° Southeast 333 383 16,200 -1,680 Descending Los Angeles Center
00:19 33.1331 -117.4675 146° Southeast 331 381 14,700 -1,620 Descending Los Angeles Center
00:20 33.0614 -117.4078 145° Southeast 318 366 12,900 -1,920 Descending Los Angeles Center
00:21 32.9833 -117.3500 148° Southeast 299 344 10,900 -1,920 Descending Southern California TRACON
00:22 32.9167 -117.3000 148° Southeast 287 330 9,100 -1,920 Descending Southern California TRACON
00:23 32.8500 -117.2333 140° Southeast 283 326 7,100 -1,800 Descending Southern California TRACON
00:24 32.8000 -117.1833 140° Southeast 276 318 5,500 -1,080 Descending Southern California TRACON
00:25 32.7833 -117.1000 103° East 254 292 5,000 -300 Descending Southern California TRACON
00:26 32.7667 -117.0167 103° East 239 275 5,000 -360 Level Southern California TRACON
00:28 32.7000 -116.9500 140° Southeast 194 223 4,000 -600 Descending Southern California TRACON
00:29 32.6833 -116.9833 239° Southwest 183 211 3,200 -780 Descending Southern California TRACON
00:30 32.7000 -117.0500 287° West 184 212 2,500 -780 Descending Southern California TRACON
00:31 32.7167 -117.1000 292° West 172 198 1,700 -960 Descending Southern California TRACON
00:32 32.7261 -117.1578 281° West 143 165 400 -660 Descending Los Angeles Center
00:33 32.7358 -117.2006 285° West 142 163 200 -240 Descending Los Angeles Center